To NAV CANADA Home Page Login to a new session Search on AWWS site Feedback and Comments Disclaimer Vers la page française équivalente Tips FAQ What's new on the site To the Forecasts and Observations / NOTAM section To "File a Flight Plan" website Publications and other links Update of the User's profile FIC Telephone Numbers My Weather Data Folder Route Weather Data Regional Weather Data Local Weather Data To the Forecasts and Observations / NOTAM section
Request Generated 04/24/2014 at 08:30:37 UTC . Weather information available at that time is displayed.

METAR/TAF

KITCHENER/WATERLOO/ON    (show WxCam)

METAR CYKF 240800Z AUTO 32003KT 9SM CLR M02/M06 A3009 RMK SLP200=
METAR CYKF 240700Z AUTO 32003KT 9SM CLR M02/M06 A3010 RMK SLP201=
METAR CYKF 240600Z AUTO 31005KT 9SM CLR M02/M06 A3010 RMK SLP201=

*** REMARK        : Forecast period has ended; this was the last TAF issued
*** REMARQUE : La période de prévision est échue; ceci était le dernier TAF qui a été émis
TAF CYKF 240138Z 2402/2404 32012KT P6SM SKC
RMK FCST BASED ON AUTO OBS. NXT FCST WILL BE ISSUED AT 240945Z=
Your time UTC time
Weather data provided by Environment Canada and NAV CANADA